User: anonymous   Login
Location: Unspecified
(0.0000°N, 0.0000°E)
Time: 18:02:40
(UTC+00:00)
Language:

SAR-Lupe-3 - Orbit

View from above orbital plane
View from above orbital plane
View from above satellite
View from above satellite

Ground track
Ground track

The orbit data is extracted from the following two-line orbital elements,

1 32283U 07053A   17346.23753034 0.00001450  00000-0  53966-4 0    07
2 32283  98.1703 181.6769 0002000 324.0110  35.9888 15.27520981    00
Epoch (UTC): 12 December 2017 05:42:02
Eccentricity: 0.0002000
inclination: 98.1703°
perigee height: 482 km
apogee height: 484 km
right ascension of ascending node: 181.6769°
argument of perigee: 324.0110°
revolutions per day: 15.27520981
mean anomaly at epoch: 35.9888°
orbit number at epoch: 0

The dashed part of the orbit path shows where the satellite is in the earth's shadow,  

DLR